#timestamp,LO_Frequency,Hit,StdDev 
1513857615.7,286047008.9,N
1513857635.5,286047008.8,N
1513857655.4,286047008.1,N
1513857675.2,286047007.7,N
1513857695.1,286047011.4,Y
1513857696.0,286047011.4,P
1513857715.8,286047007.6,N
1513857735.6,286047005.7,N
1513857755.5,286047001.4,N
1513857775.3,286047002.5,N
1513857795.2,286047001.6,N
1513857815.9,286047005.1,N
1513857835.7,286047008.1,N
1513857855.6,286047006.5,N
1513857875.4,286047003.9,N
1513857895.2,286047003.1,N
1513857915.1,286047007.5,N
1513857916.0,286047007.5,N
1513857935.8,286047009.6,Y
1513857955.7,286047005.2,P
1513857975.5,286047003.5,P
1513857995.3,286047007.4,P
1513858015.2,286047004.8,Y
1513858035.0,286046996.3,P
1513858035.9,286046996.3,N
1513858055.8,286046996.5,N
1513858075.6,286046996.4,N
1513858095.4,286046997.0,N
1513858115.3,286046996.0,N
1513858135.1,286046995.0,N
1513858155.9,286046991.7,N
1513858175.7,286046988.7,Y
1513858195.5,286046995.2,P
1513858215.4,286046997.0,P
1513858235.2,286046995.6,P
1513858255.0,286046991.7,Y
1513858256.0,286046991.7,P
1513858275.8,286046995.7,N
1513858295.6,286046993.8,P
1513858315.5,286046995.0,N
1513858335.3,286046990.1,Y
1513858355.1,286046997.5,P
1513858375.9,286047000.3,N
1513858395.7,286047002.2,N
1513858415.6,286047003.8,N
1513858435.4,286047005.6,N
1513858455.2,286047010.1,N
1513858475.1,286047009.9,N
1513858476.0,286047009.9,N
1513858495.8,286047004.5,N
1513858515.6,286047008.4,N
1513858535.5,286047013.1,N
1513858555.3,286047017.1,Y
1513858575.2,286047008.0,P
1513858595.0,286047006.1,P
1513858595.9,286047006.1,P
1513858615.7,286047005.4,Y
1513858635.6,286046999.1,P
1513858655.4,286046997.9,N
1513858675.3,286046998.7,N
1513858695.1,286046994.9,N
1513858715.8,286047000.8,N
1513858735.7,286046998.7,N
1513858755.5,286046997.3,N
1513858775.4,286046998.8,N
1513858795.2,286047002.9,N
1513858815.0,286047008.8,N
1513858815.9,286047008.8,N
1513858835.8,286047009.7,N
1513858855.6,286047013.3,N
1513858875.4,286047014.0,N
1513858895.3,286047011.1,N
1513858915.1,286047013.7,N
1513858935.9,286047010.3,N
1513858955.7,286047006.0,N
1513858975.5,286047005.1,N
1513858995.4,286047007.0,N
1513859015.2,286047008.8,N
1513859035.0,286047010.8,N
1513859036.0,286047010.8,N
1513859055.8,286047007.8,N
1513859075.6,286047004.5,N
1513859095.5,286046998.6,N
1513859115.3,286046997.8,N
1513859135.1,286046995.8,N
1513859155.9,286046996.4,N
1513859175.7,286046992.3,N
1513859195.6,286046990.3,N
1513859215.4,286046988.6,N
1513859235.2,286046989.8,N
1513859255.1,286046985.9,N
1513859256.0,286046985.9,N
1513859305.8,286046983.5,E
1513859315.8,286046985.4,N
1513859335.6,286046993.7,P
1513859355.4,286046997.5,N
1513859375.3,286046999.3,N
1513859395.1,286046999.2,N
1513859415.8,286046995.2,N
1513859435.7,286046994.9,N
1513859455.5,286046999.6,N
1513859475.4,286046997.9,N
1513859495.2,286046994.5,N
1513859515.0,286046992.4,N
1513859515.9,286046992.4,N
1513859535.8,286046991.6,N
1513859555.6,286046989.5,N
1513859575.5,286046986.9,Y
1513859595.3,286046994.8,P
1513859615.1,286046992.0,P
1513859635.9,286046992.9,P
1513859655.7,286046992.2,Y
1513859675.6,286046999.9,P
1513859695.4,286046999.7,N
1513859715.2,286046998.4,N
1513859735.1,286046998.8,N
1513859736.0,286046998.8,N
1513859755.8,286047001.2,N
1513859775.6,286047000.3,N
1513859795.5,286046996.8,N
1513859815.3,286046997.7,N
1513859835.2,286046997.5,N
1513859855.9,286046994.9,N
1513859875.7,286046996.7,N
1513859895.6,286046999.0,N
1513859915.4,286046998.7,N
1513859935.2,286046998.9,N
1513859955.1,286046999.0,N
1513859956.0,286046999.0,N
1513859975.8,286047001.0,N
1513859995.7,286046998.2,N
1513860015.5,286046998.7,N
1513860035.3,286046998.7,N
1513860055.2,286046998.2,N
1513860075.0,286046998.4,N
1513860075.9,286046998.4,N
1513860095.8,286047001.2,N
1513860115.6,286046998.5,N
1513860135.4,286047000.7,N
1513860155.3,286046999.9,N
1513860175.1,286046999.7,N
1513860195.8,286047001.9,N
1513860215.7,286047000.2,N
1513860235.5,286047000.2,N
1513860255.4,286047000.3,N
1513860275.2,286047000.9,N
1513860295.0,286047000.9,N
1513860295.9,286047000.9,N
1513860315.8,286047000.2,N
1513860335.6,286047000.5,N
1513860355.5,286047000.8,N
1513860375.3,286047001.0,N
1513860395.1,286047000.7,N
1513860415.9,286047000.6,N
1513860435.7,286047000.5,N
1513860455.5,286047000.2,N
1513860475.4,286047002.8,N
1513860495.2,286046999.7,N
1513860515.1,286047000.1,N
1513860516.0,286047000.1,N
1513860535.8,286046999.8,N
1513860555.6,286046999.9,N
1513860575.5,286047000.9,N
1513860595.3,286047000.5,N
1513860615.1,286047002.2,N
1513860635.9,286047002.2,N
1513860655.7,286046999.8,N
1513860675.6,286047002.6,Y
1513860695.4,286047000.6,P
1513860715.2,286046999.7,P
1513860735.1,286046998.3,P
1513860736.0,286046998.3,N
1513860755.8,286046999.3,N
1513860775.7,286047001.7,N
1513860795.5,286047001.0,N
1513860815.3,286046997.2,N
1513860835.2,286046995.0,Y
1513860855.0,286047000.7,P
1513860855.9,286047000.7,N
1513860875.8,286047005.9,P
1513860895.6,286047003.6,N
1513860915.4,286047002.3,N
1513860935.3,286047001.2,N
1513860955.1,286046996.9,N
1513860975.8,286046995.2,N
1513860995.7,286046999.3,N
1513861015.5,286046999.4,N
1513861035.4,286046993.3,N
1513861055.2,286046994.6,N
1513861075.0,286046992.1,N
1513861075.9,286046992.1,N
1513861095.8,286046996.1,N
1513861115.6,286046992.5,N
1513861135.4,286046991.9,N
1513861155.3,286046992.0,N
1513861175.1,286046990.5,N
1513861195.9,286046988.9,N
